(195702) = 2002 PB30 = 2003 WN9

Discovered at Palomar on 2002-08-06 by NEAT.

Orbit

Orbit type: Main Belt

Note: WebGL enabled browser required.

epoch2023-09-13.0
epoch JD2460200.5
perihelion date2020-01-05.70511
perihelion JD2458854.20511
argument of perihelion (°)60.80078
ascending node (°)306.07604
inclination (°)9.16175
eccentricity0.0677257
perihelion distance (AU)2.9383410
Tisserand w.r.t. Jupiter3.2
ΔV w.r.t. Earth (km/sec)11.0
semimajor axis (AU)3.1517988
mean anomaly (°)237.14082
mean daily motion (°/day)0.17614330
aphelion distance (AU)3.365
period (years)5.6
P-vector [x]0.98380522
P-vector [y]0.04855156
P-vector [z]0.17253996
Q-vector [x]-0.12476538
Q-vector [y]0.87662136
Q-vector [z]0.46472421
absolute magnitude15.45
phase slope0.15
uncertainty0
referenceMPEC 2023-X132
observations used368
oppositions15
arc length (days)7613
first opposition used2002
last opposition used2023
residual rms (arc-secs)0.75
perturbers coarse indicatorM-v
perturbers precise indicator003Ek
first observation date used2002-08-06.0
last observation date used2023-06-10.0
computer nameMPCLINUX
JD of orbit computation2456966.846160
perihelion JD uncertainty (days)2.6317E-04
argument of perihelion uncertainty (°)6.2829E-05
ascending node uncertainty (°)3.9176E-05
inclination uncertainty (°)7.0093E-06
eccentricity uncertainty 6.3809E-08
perihelion distance uncertainty (AU)2.1167E-07
Minimum Orbit Intersection Distances (in AU)
for orbit epoch: 2460200.5, reference: E2023-XD2
Mercury2.57956
Venus2.22976
Earth1.94814
Mars1.54147
Jupiter2.03329
Saturn5.89158
Uranus15.1241
Neptune26.9306

Observations

379 total observations over interval: 2002 08 06.44225 – 2023 06 10.311800
These data are available for download (format description).

Date (UT) J2000 RA J2000 Dec Magn Location Ref
2002 08 06.44225 21 41 47.88 -10 17 13.8 19.7   644 – Palomar Mountain/NEAT MPS 60160
2002 08 06.45272 21 41 47.37 -10 17 14.5 19.9   644 – Palomar Mountain/NEAT MPS 60160
2002 08 06.46315 21 41 46.86 -10 17 14.8 20.3   644 – Palomar Mountain/NEAT MPS 60160
2002 08 07.45192 21 40 59.04 -10 18 08.5 19.8   644 – Palomar Mountain/NEAT MPS 60160
2002 08 07.46234 21 40 58.55 -10 18 09.5 20.1   644 – Palomar Mountain/NEAT MPS 60160
2002 08 07.47393 21 40 57.99 -10 18 09.9 20.1   644 – Palomar Mountain/NEAT MPS 60160
2002 08 15.24007 21 34 33.42 -10 26 37.4 20.2   644 – Palomar Mountain/NEAT MPS 60160
2002 08 15.32097 21 34 29.25 -10 26 43.3 19.5   644 – Palomar Mountain/NEAT MPS 60160
2002 08 15.39221 21 34 25.57 -10 26 48.4 19.2   644 – Palomar Mountain/NEAT MPS 60160
2002 08 17.35869 21 32 47.39 -10 29 12.9 20.0   644 – Palomar Mountain/NEAT MPS 60160
2002 08 17.38223 21 32 46.17 -10 29 14.8 19.9   644 – Palomar Mountain/NEAT MPS 60160
2002 08 17.40520 21 32 45.00 -10 29 16.3 19.7   644 – Palomar Mountain/NEAT MPS 60160
2003 11 18.15952 03 20 45.52 +31 45 17.9 19.9 V 691 – Steward Observatory, Kitt Peak-Spacewatch MPS 91155
2003 11 18.18746 03 20 43.96 +31 45 11.0 19.9 V 691 – Steward Observatory, Kitt Peak-Spacewatch MPS 91155
2003 11 18.22050 03 20 42.10 +31 45 03.2 19.9 V 691 – Steward Observatory, Kitt Peak-Spacewatch MPS 91155
2003 11 19.25605 03 19 45.38 +31 40 40.7 19.2   704 – Lincoln Laboratory ETS, New Mexico MPS 91155
2003 11 19.26861 03 19 44.70 +31 40 38.0 19.6   704 – Lincoln Laboratory ETS, New Mexico MPS 91155
2003 11 19.28116 03 19 43.98 +31 40 34.3 19.4   704 – Lincoln Laboratory ETS, New Mexico MPS 91155
2003 11 19.29363 03 19 43.34 +31 40 31.5 19.6   704 – Lincoln Laboratory ETS, New Mexico MPS 91155
2003 11 19.30643 03 19 42.59 +31 40 27.4 19.6   704 – Lincoln Laboratory ETS, New Mexico MPS 91155
2004 12 11.18797 09 29 26.70 +15 17 59.2   621 – Bergisch Gladbach MPS 121724
2004 12 11.21137 09 29 26.64 +15 17 57.6   621 – Bergisch Gladbach MPS 121724
2004 12 11.23477 09 29 26.55 +15 17 54.8 20 R 621 – Bergisch Gladbach MPS 121724
2005 02 04.23276 08 58 16.28 +15 36 25.0 20.2 V 691 – Steward Observatory, Kitt Peak-Spacewatch MPS 125649
2005 02 04.26221 08 58 14.73 +15 36 27.6 20.3 V 691 – Steward Observatory, Kitt Peak-Spacewatch MPS 125649
2005 02 04.29144 08 58 13.16 +15 36 30.3 20.3 V 691 – Steward Observatory, Kitt Peak-Spacewatch MPS 125649
2005 03 01.17296 08 39 31.03 +16 02 39.7 21.2 V 691 – Steward Observatory, Kitt Peak-Spacewatch MPS 127152
2005 03 01.18892 08 39 30.47 +16 02 40.5 21.0 V 691 – Steward Observatory, Kitt Peak-Spacewatch MPS 127152
2005 03 01.20478 08 39 29.91 +16 02 40.8 21.0 V 691 – Steward Observatory, Kitt Peak-Spacewatch MPS 127152
2006 05 01.248956 12 37 31.138 -17 27 15.24 20.50 V 645 – Apache Point-Sloan Digital Sky Survey MPS 390229
2006 05 01.252428 12 37 31.018 -17 27 14.15 21.21   645 – Apache Point-Sloan Digital Sky Survey MPS 390229
2008 08 30.26368 00 01 16.04 +11 14 22.1 19.4   704 – Lincoln Laboratory ETS, New Mexico MPS 255187
2008 08 30.27656 00 01 15.50 +11 14 20.7 19.6   704 – Lincoln Laboratory ETS, New Mexico MPS 255187
2008 08 30.30241 00 01 14.53 +11 14 21.6 19.5   704 – Lincoln Laboratory ETS, New Mexico MPS 255187
2008 08 30.31535 00 01 14.01 +11 14 21.4 19.3   704 – Lincoln Laboratory ETS, New Mexico MPS 255187
2008 09 05.20124 23 57 16.27 +11 11 09.9 19.5 C 704 – Lincoln Laboratory ETS, New Mexico MPS 288592
2008 09 05.22828 23 57 15.11 +11 11 07.7 19.4 C 704 – Lincoln Laboratory ETS, New Mexico MPS 288592
2008 09 05.24178 23 57 14.46 +11 11 08.0 19.6 C 704 – Lincoln Laboratory ETS, New Mexico MPS 288592
2008 09 05.25529 23 57 13.88 +11 11 07.2 19.3 C 704 – Lincoln Laboratory ETS, New Mexico MPS 288592
2008 09 21.36282 23 44 47.94 +10 36 09.3 19.4 V 703 – Catalina Sky Survey MPS 256594
2008 09 21.36933 23 44 47.61 +10 36 07.2 19.6 V 703 – Catalina Sky Survey MPS 256594
2008 09 21.37583 23 44 47.29 +10 36 07.4 19.5 V 703 – Catalina Sky Survey MPS 256594
2008 09 21.38230 23 44 46.96 +10 36 05.3 19.3 V 703 – Catalina Sky Survey MPS 256594
2008 09 28.34670 23 39 19.36 +10 11 34.2 19.0 V 703 – Catalina Sky Survey MPS 257819
2008 09 28.35396 23 39 18.97 +10 11 32.7 19.2 V 703 – Catalina Sky Survey MPS 257819
2008 09 28.36125 23 39 18.68 +10 11 30.5 19.4 V 703 – Catalina Sky Survey MPS 257819
2008 09 28.36846 23 39 18.25 +10 11 29.3 19.2 V 703 – Catalina Sky Survey MPS 257819
2008 10 01.22709 23 37 09.54 +10 00 20.2 19.4   704 – Lincoln Laboratory ETS, New Mexico MPS 257819
2008 10 01.23931 23 37 08.96 +10 00 17.5 19.7   704 – Lincoln Laboratory ETS, New Mexico MPS 257819
2008 10 01.25155 23 37 08.39 +10 00 13.5 19.8   704 – Lincoln Laboratory ETS, New Mexico MPS 257819
2008 10 01.26379 23 37 07.83 +10 00 11.4 20.1   704 – Lincoln Laboratory ETS, New Mexico MPS 257819
2008 10 01.27602 23 37 07.27 +10 00 07.8 20.0   704 – Lincoln Laboratory ETS, New Mexico MPS 257819
2008 11 01.15201 23 22 10.92 +08 00 13.2 19.8 V G96 – Mt. Lemmon Survey MPS 263082
2008 11 01.16308 23 22 10.81 +08 00 11.2 19.9 V G96 – Mt. Lemmon Survey MPS 263082
2008 11 01.17418 23 22 10.66 +08 00 09.3 19.6 V G96 – Mt. Lemmon Survey MPS 263082
2008 11 01.18525 23 22 10.52 +08 00 07.5 20.0 V G96 – Mt. Lemmon Survey MPS 263082
2009 11 27.33510 06 18 04.93 +31 58 49.1 19.9 V G96 – Mt. Lemmon Survey MPS 306507
2009 11 27.33946 06 18 04.75 +31 58 49.1 19.8 V G96 – Mt. Lemmon Survey MPS 306507
2009 11 27.35447 06 18 04.06 +31 58 49.4 20.2 V G96 – Mt. Lemmon Survey MPS 306507
2009 11 27.35904 06 18 03.85 +31 58 49.2 19.8 V G96 – Mt. Lemmon Survey MPS 306507
2010 03 09.98773 05 37 07.61 +27 20 58.7   C51 – WISE MPS 337064
2010 03 10.12016 05 37 12.72 +27 20 37.3   C51 – WISE MPS 319112
2010 03 10.25246 05 37 17.90 +27 20 18.3   C51 – WISE MPS 337064
2010 03 10.51707 05 37 28.32 +27 19 39.1   C51 – WISE MPS 319112
2010 03 10.583287 05 37 30.92 +27 19 28.2   C51 – WISE MPS 319112
2010 03 10.649375 05 37 33.53 +27 19 19.4   C51 – WISE MPS 319112
2010 03 10.71559 05 37 36.12 +27 19 09.4   C51 – WISE MPS 337064
2010 03 10.781679 05 37 38.74 +27 18 59.6   C51 – WISE MPS 319112
2010 03 10.980199 05 37 46.71 +27 18 30.0   C51 – WISE MPS 337064
2010 03 11.112502 05 37 51.96 +27 18 12.5   C51 – WISE MPS 319112
2010 03 11.244807 05 37 57.21 +27 17 51.7   C51 – WISE MPS 319112
2011 01 27.36889 10 59 03.86 +00 08 16.0 21.1 V 691 – Steward Observatory, Kitt Peak-Spacewatch MPS 368352
2011 01 27.38661 10 59 03.37 +00 08 15.7 20.6 V 691 – Steward Observatory, Kitt Peak-Spacewatch MPS 368352
2011 01 27.40436 10 59 02.88 +00 08 15.3 20.8 V 691 – Steward Observatory, Kitt Peak-Spacewatch MPS 368352
2011 03 04.22917 10 34 07.86 +01 05 51.6 20.3 V 703 – Catalina Sky Survey MPS 373214
2011 03 04.23740 10 34 07.39 +01 05 53.0 19.5 V 703 – Catalina Sky Survey MPS 373214
2011 03 04.24561 10 34 07.06 +01 05 55.6 20.5 V 703 – Catalina Sky Survey MPS 373215
2011 03 04.25390 10 34 06.63 +01 05 56.1 20.2 V 703 – Catalina Sky Survey MPS 373215
2013 07 08.50941 20 51 58.818 -18 35 38.71 20.3 g F51 – Pan-STARRS 1, Haleakala MPS 472021
2013 07 08.52022 20 51 58.370 -18 35 38.78 20.1 g F51 – Pan-STARRS 1, Haleakala MPS 472021
2013 07 12.48479 20 49 10.941 -18 36 17.85 20.2 w F51 – Pan-STARRS 1, Haleakala MPS 472473
2013 07 12.51473 20 49 09.575 -18 36 18.18 20.1 w F51 – Pan-STARRS 1, Haleakala MPS 472473
2013 07 12.52973 20 49 08.884 -18 36 18.33 20.0 w F51 – Pan-STARRS 1, Haleakala MPS 472473
2013 07 14.45174 20 47 42.797 -18 36 46.75 20.4 g F51 – Pan-STARRS 1, Haleakala MPS 472473
2013 07 14.46222 20 47 42.293 -18 36 46.91 20.5 g F51 – Pan-STARRS 1, Haleakala MPS 472473
2013 07 18.43885 20 44 35.270 -18 37 58.60 19.5 i F51 – Pan-STARRS 1, Haleakala MPS 472473
2013 07 18.44891 20 44 34.775 -18 37 58.87 19.5 i F51 – Pan-STARRS 1, Haleakala MPS 472473
2013 07 18.48394 20 44 33.009 -18 37 59.56 19.5 r F51 – Pan-STARRS 1, Haleakala MPS 472473
2013 07 18.49302 20 44 32.554 -18 37 59.77 19.6 r F51 – Pan-STARRS 1, Haleakala MPS 472473
2014 10 22.35038 02 12 24.13 +27 49 54.3 19.4 V 703 – Catalina Sky Survey MPS 541776
2014 10 22.35544 02 12 23.90 +27 49 53.2 19.7 V 703 – Catalina Sky Survey MPS 541776
